DELTA 1 DEB, 2775

Orbit data source: Space-Track

DELTA 1 DEB, 2775 is space debris in SSO originally from a launch on Sun, 02 Oct 1966 UTC launched from the Air Force Western Test Range (AFWTR). Debris objects in space refer to the collection of defunct objects orbiting the Earth. Examples of debris include non-operational satellites, rocket bodies, and fragments generated from explosions, collisions, or faulty payload assembly.

Loading next visibility...
Identifier
2775, 1966-087D
Orbit
SSO
Country
Flag of USUS
Related business
Manufacturer
Unknown
Mission
Spacecraft
Bus & Motor
Unknown
Mass
1 kg wet, 1 kg dry
Launch date (UTC)
1966-10-02 (59 years ago)
Launch vehicle
Unknown
Launch site
Air Force Western Test Range (AFWTR)
Object type
Payload
Rocket body
Debris
Shape & HBR
Unknown
Radar Cross Section
Small (<0.1 m²)

Expand to show TLE details & history
Last TLE update: 2 days ago

TLE from 2 days ago
0 DELTA 1 DEB
1 02775U 66087D   25300.00031483 -.00000037  00000-0  29030-4 0  9996
2 02775 100.9257 310.1862 0124430 245.5273 171.8654 12.71688789740695
Epoch: 2025-10-27T00:00Z
TLE epoch observation values (Epoch: 2025-10-27T00:00:27.201Z)
Latitude
56.08344°
Longitude
-102.13528°
Altitude
1,479.794 km
Speed
7.085 km/s
True Right ascension
19h 34m 20s
True Declination
55° 56' 19"
Sunlit
Object was in daylight at epoch
Visualization orbit readout
Latitude
Unknown
Longitude
Unknown
Altitude
Unknown
Speed
Unknown
Apparent Right ascension
Unknown
Apparent Declination
Unknown
Sunlit
N/A
Visualization observer readout
Local Sidereal Time
08:48:27
Azimuth
Unknown
Elevation
Unknown
Doppler factor
Unknown
Orbital elements
Apogee altitude
1,468.981 km
Perigee altitude
1,276.097 km
Semi-major axis
7,750.676 km
Eccentricity
0.01244
Inclination
100.9257°
RAAN
310.1862°
Arg. of periapsis
245.5273°
True anomaly
172.0641°
Mean anomaly
171.8654°
Eccentric anomaly
171.96505°
Mean motion
3.18078 °/min
Orbital period
113.18 mins
BSTAR
0.00002903
Loading maneuver chart data...
Computing Atmospheric mass density...
Loading historical data...
Loading historical data...
Loading historical data...
Loading historical data...
Loading historical data...
Loading historical data...
Loading historical data...
Other satellites on launch #87 in the year 1966 (1966-10-02 UTC)

Documentation

Showing up to 5 results
|